DECAYED

OBJECT B, 58503 (Decayed)

Orbit data source: Space-Track

You're viewing an Uncataloged Satellite

Recently launched and/or uncataloged satellites may have evolving metadata. Metadata may include but not limited to: Owner, Maufacturer, Bus, Motor, and Mission.

OBJECT B, 58503 was a satellite owned by Tuoyuan Shikong (CN) in LEO that was launched on Mon, 04 Dec 2023 UTC via a GUSHENXING 1 launch vehicle from the Jiuquan Satellite Launch Center, China (JSC). Unknown objects in Earth's orbit typically refer to objects detected orbiting the Earth but have not yet been identified or cataloged. These objects could be anything from previously untracked satellites, spent rocket stages, debris from satellite collisions, or even natural meteoroids temporarily captured by Earth's gravity. This object's orbit decayed before it could be identified.

Not visible in the next 10 days
Identifier
58503, 2023-189B
Orbit
Decayed
Country
Flag of CNCN / PRC
Related business
Manufacturer
Weina
Mission
Decayed Commercial Weather
Bus & Motor
MN35, Unknown motor
Mass
35 kg wet, 35 kg dry
Launch date (UTC)
2023-12-04 (3 years ago)
Launch vehicle
GUSHENXING 1
Launch site
Jiuquan Satellite Launch Center, China (JSC)
Object type
Unknown
Shape & HBR
Box + 2 Pan, 3.0 m
Radar Cross Section
2.855 m², Medium (>0.1 m² and < 1m²)

Expand to show TLE details & history
Last TLE update: 2 weeks ago

TLE from 2 weeks ago
0 OBJECT B
1 58503U 23189B   26157.36621896  .04635759  24647-5  11779-2 0  9990
2 58503  97.3625 197.5486 0011765 254.3472 105.6523 16.28725951141084
Epoch: 2026-06-06T08:47Z
TLE epoch observation values (Epoch: 2026-06-06T08:47:21.318Z)
Latitude
-0.00006°
Longitude
170.92697°
Altitude
201.299 km
Speed
7.784 km/s
True Right ascension
13h 10m 11s
True Declination
0° 00' 00"
Sunlit
Object was in full shadow at epoch
Visualization orbit readout
Latitude
Unknown
Longitude
Unknown
Altitude
Unknown
Speed
Unknown
Apparent Right ascension
Unknown
Apparent Declination
Unknown
Sunlit
N/A
Visualization observer readout
Local Sidereal Time
23:07:26
Azimuth
Unknown
Elevation
Unknown
Doppler factor
Unknown
Orbital elements
Apogee altitude
200.517 km
Perigee altitude
185.056 km
Semi-major axis
6,570.923 km
Eccentricity
0.00118
Inclination
97.3625°
RAAN
197.5486°
Arg. of periapsis
254.3472°
True anomaly
105.78207°
Mean anomaly
105.6523°
Eccentric anomaly
105.71719°
Mean motion
4.07477 °/min
Orbital period
88.35 mins
BSTAR
0.0011779
Loading maneuver chart data...
Computing Atmospheric mass density...
Loading historical data...
Loading historical data...
Loading historical data...
Loading historical data...
Loading historical data...
Loading historical data...
Loading historical data...
Other satellites on launch #189 in the year 2023 (2023-12-04 UTC)

Documentation

Showing up to 5 results
|